WBANNO,USDM_WEEK,LONGITUDE,LATITUDE,SMVWC_5_CM_MEAN,SMANOM_5_CM_MEAN,SMPERC_5_CM_30COUNTS,SMPERC_5_CM_70COUNTS,SMVWC_10_CM_MEAN,SMANOM_10_CM_MEAN,SMPERC_10_CM_30COUNTS,SMPERC_10_CM_70COUNTS,SMVWC_20_CM_MEAN,SMANOM_20_CM_MEAN,SMPERC_20_CM_30COUNTS,SMPERC_20_CM_70COUNTS,SMVWC_50_CM_MEAN,SMANOM_50_CM_MEAN,SMPERC_50_CM_30COUNTS,SMPERC_50_CM_70COUNTS,SMVWC_100_CM_MEAN,SMANOM_100_CM_MEAN,SMPERC_100_CM_30COUNTS,SMPERC_100_CM_70COUNTS,SMVWC_TOP_CM_MEAN,SMANOM_TOP_CM_MEAN,SMPERC_TOP_CM_30COUNTS,SMPERC_TOP_CM_70COUNTS,SMVWC_COLUMN_CM_MEAN,SMANOM_COLUMN_CM_MEAN,SMPERC_COLUMN_CM_30COUNTS,SMPERC_COLUMN_CM_70COUNTS
53154,20110225,-114.19,32.84,,,,,,,,,,,,,,,,,,,,,,,,,,,,
53154,20110226,-114.19,32.84,,,,,,,,,,,,,,,,,,,,,,,,,,,,
53154,20110227,-114.19,32.84,,,,,,,,,,,,,,,,,,,,,,,,,,,,
53154,20110228,-114.19,32.84,,,,,,,,,,,,,,,,,,,,,,,,,,,,
53154,20110301,-114.19,32.84,,,,,,,,,,,,,,,,,,,,,,,,,,,,
53154,20110302,-114.19,32.84,,,,,,,,,,,,,,,,,,,,,,,,,,,,
53154,20110303,-114.19,32.84,,,,,,,,,,,,,,,,,,,,,,,,,,,,
53154,20110304,-114.19,32.84,0.131,0.51,0.014,0.718,0.063,-0.84,1,0,,,,,,,,,,,,,0.097,-0.41,0.379,0,,,,
53154,20110305,-114.19,32.84,0.132,0.58,0.013,0.824,0.064,-0.82,1,0,,,,,,,,,,,,,0.098,-0.36,0.265,0,,,,
53154,20110306,-114.19,32.84,0.132,0.6,0,0.845,0.065,-0.8,1,0,,,,,,,,,,,,,0.099,-0.34,0.202,0,,,,
53154,20110307,-114.19,32.84,0.132,0.61,0,0.78,0.067,-0.78,1,0,,,,,,,,,,,,,0.099,-0.3,0.06,0,,,,
53154,20110308,-114.19,32.84,0.13,0.56,0,0.673,0.068,-0.76,1,0,,,,,,,,,,,,,0.099,-0.3,0.048,0,,,,
53154,20110309,-114.19,32.84,0.126,0.47,0,0.53,0.069,-0.75,1,0,,,,,,,,,,,,,0.098,-0.33,0.185,0,,,,
53154,20110310,-114.19,32.84,0.121,0.35,0,0.387,0.07,-0.75,1,0,,,,,,,,,,,,,0.096,-0.37,0.315,0,,,,
53154,20110311,-114.19,32.84,0.116,0.23,0,0.244,0.071,-0.75,1,0,,,,,,,,,,,,,0.094,-0.41,0.417,0,,,,
53154,20110312,-114.19,32.84,0.111,0.12,0,0.101,0.072,-0.75,1,0,,,,,,,,,,,,,0.092,-0.45,0.548,0,,,,
53154,20110313,-114.19,32.84,0.107,0.03,0,0,0.073,-0.76,1,0,,,,,,,,,,,,,0.09,-0.48,0.69,0,,,,
53154,20110314,-114.19,32.84,0.103,-0.05,0.054,0,0.074,-0.78,1,0,,,,,,,,,,,,,0.089,-0.5,0.833,0,,,,
53154,20110315,-114.19,32.84,0.1,-0.11,0.173,0,0.075,-0.81,1,0,,,,,,,,,,,,,0.087,-0.52,0.935,0,,,,
53154,20110316,-114.19,32.84,0.097,-0.16,0.315,0,0.076,-0.82,1,0,,,,,,,,,,,,,0.087,-0.53,0.935,0,,,,
53154,20110317,-114.19,32.84,0.094,-0.21,0.458,0,0.078,-0.84,1,0,,,,,,,,,,,,,0.086,-0.54,0.946,0,,,,
53154,20110318,-114.19,32.84,0.091,-0.25,0.601,0,0.078,-0.86,1,0,,,,,,,,,,,,,0.085,-0.55,0.988,0,,,,
53154,20110319,-114.19,32.84,0.088,-0.3,0.744,0,0.079,-0.89,1,0,,,,,,,,,,,,,0.084,-0.56,1,0,,,,
53154,20110320,-114.19,32.84,0.085,-0.35,0.887,0,0.079,-0.91,1,0,,,,,,,,,,,,,0.082,-0.59,1,0,,,,
53154,20110321,-114.19,32.84,0.083,-0.35,0.929,0,0.079,-0.92,1,0,,,,,,,,,,,,,0.081,-0.61,0.988,0,,,,
53154,20110322,-114.19,32.84,0.082,-0.35,0.888,0,0.079,-0.94,1,0,,,,,,,,,,,,,0.08,-0.62,0.959,0,,,,
53154,20110323,-114.19,32.84,0.082,-0.32,0.783,0.006,0.078,-0.97,1,0,,,,,,,,,,,,,0.08,-0.61,0.946,0,,,,
53154,20110324,-114.19,32.84,0.083,-0.26,0.634,0.006,0.077,-0.99,1,0,,,,,,,,,,,,,0.08,-0.59,0.858,0,,,,
53154,20110325,-114.19,32.84,0.085,-0.2,0.484,0.006,0.076,-1.02,1,0,,,,,,,,,,,,,0.08,-0.58,0.838,0,,,,
53154,20110326,-114.19,32.84,0.086,-0.13,0.335,0.006,0.075,-1.05,1,0,,,,,,,,,,,,,0.08,-0.56,0.838,0,,,,
53154,20110327,-114.19,32.84,0.088,-0.06,0.186,0.006,0.074,-1.06,1,0,,,,,,,,,,,,,0.081,-0.53,0.838,0,,,,
53154,20110328,-114.19,32.84,0.088,-0.02,0.093,0.006,0.074,-1.06,1,0,,,,,,,,,,,,,0.081,-0.52,0.857,0,,,,
53154,20110329,-114.19,32.84,0.088,0,0.048,0.006,0.074,-1.04,1,0,,,,,,,,,,,,,0.081,-0.5,0.881,0,,,,
53154,20110330,-114.19,32.84,0.087,0.01,0.006,0,0.075,-1,1,0,,,,,,,,,,,,,0.081,-0.49,0.863,0,,,,
53154,20110331,-114.19,32.84,0.086,-0.01,0.006,0,0.076,-0.97,1,0,,,,,,,,,,,,,0.081,-0.49,0.94,0,,,,
53154,20110401,-114.19,32.84,0.085,-0.02,0.006,0,0.077,-0.93,1,0,,,,,,,,,,,,,0.081,-0.48,0.922,0,,,,
53154,20110402,-114.19,32.84,0.083,-0.03,0.006,0,0.079,-0.87,1,0,,,,,,,,,,,,,0.081,-0.46,0.88,0,,,,
53154,20110403,-114.19,32.84,0.082,-0.06,0.006,0,0.08,-0.83,1,0,,,,,,,,,,,,,0.081,-0.44,0.873,0,,,,
53154,20110404,-114.19,32.84,0.08,-0.09,0.072,0,0.081,-0.78,1,0,,,,,,,,,,,,,0.081,-0.43,0.873,0,,,,
53154,20110405,-114.19,32.84,0.078,-0.14,0.205,0,0.082,-0.75,1,0,,,,,,,,,,,,,0.08,-0.43,0.886,0,,,,
53154,20110406,-114.19,32.84,0.076,-0.19,0.349,0,0.082,-0.73,1,0,,,,,,,,,,,,,0.079,-0.45,0.916,0,,,,
53154,20110407,-114.19,32.84,0.074,-0.24,0.464,0,0.082,-0.72,1,0,,,,,,,,,,,,,0.078,-0.47,0.916,0,,,,
53154,20110408,-114.19,32.84,0.072,-0.29,0.589,0,0.082,-0.71,1,0,,,,,,,,,,,,,0.077,-0.5,0.952,0,,,,
53154,20110409,-114.19,32.84,0.069,-0.37,0.732,0,0.081,-0.72,1,0,,,,,,,,,,,,,0.075,-0.55,0.994,0,,,,
53154,20110410,-114.19,32.84,0.069,-0.35,0.774,0,0.08,-0.75,1,0,,,,,,,,,,,,,0.074,-0.57,1,0,,,,
53154,20110411,-114.19,32.84,0.072,-0.22,0.702,0.095,0.079,-0.78,1,0,,,,,,,,,,,,,0.075,-0.53,0.899,0,,,,
53154,20110412,-114.19,32.84,0.077,-0.02,0.571,0.238,0.077,-0.8,1,0,,,,,,,,,,,,,0.077,-0.44,0.756,0,,,,
53154,20110413,-114.19,32.84,0.082,0.19,0.429,0.381,0.077,-0.8,1,0,,,,,,,,,,,,,0.08,-0.34,0.613,0,,,,
53154,20110414,-114.19,32.84,0.086,0.37,0.315,0.524,0.076,-0.81,1,0,,,,,,,,,,,,,0.081,-0.25,0.47,0,,,,
53154,20110415,-114.19,32.84,0.09,0.52,0.185,0.667,0.076,-0.82,1,0,,,,,,,,,,,,,0.083,-0.18,0.327,0,,,,
53154,20110416,-114.19,32.84,0.095,0.71,0.042,0.798,0.076,-0.82,1,0,,,,,,,,,,,,,0.085,-0.08,0.185,0,,,,
53154,20110417,-114.19,32.84,0.096,0.81,0,0.887,0.077,-0.78,1,0,,,,,,,,,,,,,0.087,-0.01,0.042,0,,,,
53154,20110418,-114.19,32.84,0.095,0.78,0,0.81,0.078,-0.74,1,0,,,,,,,,,,,,,0.087,0,0,0,,,,
53154,20110419,-114.19,32.84,0.091,0.68,0,0.667,0.08,-0.7,1,0,,,,,,,,,,,,,0.085,-0.03,0,0,,,,
53154,20110420,-114.19,32.84,0.087,0.55,0,0.524,0.08,-0.67,1,0,,,,,,,,,,,,,0.084,-0.08,0.006,0,,,,
53154,20110421,-114.19,32.84,0.084,0.46,0,0.381,0.081,-0.64,1,0,,,,,,,,,,,,,0.083,-0.12,0.006,0,,,,
53154,20110422,-114.19,32.84,0.081,0.39,0,0.238,0.082,-0.6,0.994,0,,,,,,,,,,,,,0.082,-0.14,0.024,0,,,,
53154,20110423,-114.19,32.84,0.079,0.3,0,0.107,0.083,-0.57,0.994,0,,,,,,,,,,,,,0.081,-0.18,0.065,0,,,,
53154,20110424,-114.19,32.84,0.076,0.22,0,0.018,0.083,-0.54,0.988,0,,,,,,,,,,,,,0.08,-0.22,0.185,0,,,,
53154,20110425,-114.19,32.84,0.074,0.15,0,0,0.083,-0.53,0.982,0,,,,,,,,,,,,,0.078,-0.26,0.327,0,,,,
53154,20110426,-114.19,32.84,0.073,0.11,0,0,0.082,-0.52,0.982,0,,,,,,,,,,,,,0.077,-0.29,0.431,0,,,,
53154,20110427,-114.19,32.84,0.071,0.09,0,0,0.082,-0.51,0.982,0,,,,,,,,,,,,,0.077,-0.32,0.551,0,,,,
53154,20110428,-114.19,32.84,0.07,0.05,0,0,0.082,-0.5,0.982,0,,,,,,,,,,,,,0.076,-0.34,0.659,0,,,,
53154,20110429,-114.19,32.84,0.069,0.04,0,0,0.082,-0.5,0.988,0,,,,,,,,,,,,,0.075,-0.36,0.707,0,,,,
53154,20110430,-114.19,32.84,0.068,0.02,0,0,0.082,-0.5,0.982,0,,,,,,,,,,,,,0.075,-0.37,0.749,0,,,,
53154,20110501,-114.19,32.84,0.067,-0.02,0.102,0,0.081,-0.5,0.988,0,,,,,,,,,,,,,0.074,-0.4,0.772,0,,,,
53154,20110502,-114.19,32.84,0.065,-0.07,0.246,0,0.081,-0.5,0.994,0,,,,,,,,,,,,,0.073,-0.43,0.772,0,,,,
53154,20110503,-114.19,32.84,0.063,-0.12,0.321,0,0.08,-0.5,0.994,0,,,,,,,,,,,,,0.072,-0.46,0.81,0,,,,
53154,20110504,-114.19,32.84,0.062,-0.15,0.387,0,0.08,-0.5,0.994,0,,,,,,,,,,,,,0.071,-0.49,0.827,0,,,,
53154,20110505,-114.19,32.84,0.061,-0.19,0.458,0,0.079,-0.5,0.988,0,,,,,,,,,,,,,0.07,-0.51,0.863,0,,,,
53154,20110506,-114.19,32.84,0.06,-0.23,0.5,0,0.079,-0.48,0.935,0,,,,,,,,,,,,,0.069,-0.54,0.911,0,,,,
53154,20110507,-114.19,32.84,0.059,-0.25,0.53,0,0.079,-0.47,0.827,0,,,,,,,,,,,,,0.069,-0.56,0.935,0,,,,
53154,20110508,-114.19,32.84,0.059,-0.24,0.494,0,0.079,-0.45,0.69,0,,,,,,,,,,,,,0.069,-0.55,0.923,0,,,,
53154,20110509,-114.19,32.84,0.058,-0.25,0.494,0,0.079,-0.42,0.577,0,,,,,,,,,,,,,0.069,-0.55,0.923,0,,,,
53154,20110510,-114.19,32.84,0.057,-0.3,0.56,0,0.079,-0.41,0.571,0,,,,,,,,,,,,,0.068,-0.58,0.923,0,,,,
53154,20110511,-114.19,32.84,0.056,-0.34,0.637,0,0.079,-0.41,0.571,0,,,,,,,,,,,,,0.067,-0.62,0.923,0,,,,
53154,20110512,-114.19,32.84,0.055,-0.35,0.655,0,0.078,-0.42,0.577,0,,,,,,,,,,,,,0.067,-0.64,0.923,0,,,,
53154,20110513,-114.19,32.84,0.055,-0.35,0.661,0,0.078,-0.42,0.619,0,,,,,,,,,,,,,0.066,-0.66,0.946,0,,,,
53154,20110514,-114.19,32.84,0.055,-0.35,0.661,0,0.077,-0.43,0.696,0,,,,,,,,,,,,,0.066,-0.66,0.964,0,,,,
53154,20110515,-114.19,32.84,0.054,-0.35,0.661,0,0.077,-0.44,0.786,0,,,,,,,,,,,,,0.066,-0.67,0.976,0,,,,
53154,20110516,-114.19,32.84,0.054,-0.36,0.661,0,0.077,-0.45,0.899,0,,,,,,,,,,,,,0.065,-0.68,0.976,0,,,,
53154,20110517,-114.19,32.84,0.054,-0.36,0.661,0,0.076,-0.46,0.905,0,,,,,,,,,,,,,0.065,-0.68,0.976,0,,,,
53154,20110518,-114.19,32.84,0.053,-0.37,0.661,0,0.076,-0.47,0.905,0,,,,,,,,,,,,,0.065,-0.69,0.976,0,,,,
53154,20110519,-114.19,32.84,0.052,-0.42,0.714,0,0.075,-0.49,0.905,0,,,,,,,,,,,,,0.064,-0.72,0.976,0,,,,
53154,20110520,-114.19,32.84,0.051,-0.47,0.804,0,0.074,-0.52,0.917,0,,,,,,,,,,,,,0.063,-0.75,0.982,0,,,,
53154,20110521,-114.19,32.84,0.051,-0.49,0.851,0,0.074,-0.56,0.952,0,,,,,,,,,,,,,0.062,-0.78,1,0,,,,
53154,20110522,-114.19,32.84,0.051,-0.48,0.845,0,0.073,-0.59,1,0,,,,,,,,,,,,,0.062,-0.79,0.994,0,,,,
53154,20110523,-114.19,32.84,0.051,-0.46,0.762,0,0.072,-0.6,1,0,,,,,,,,,,,,,0.062,-0.78,0.994,0,,,,
53154,20110524,-114.19,32.84,0.051,-0.44,0.72,0,0.072,-0.6,1,0,,,,,,,,,,,,,0.062,-0.77,0.994,0,,,,
53154,20110525,-114.19,32.84,0.052,-0.41,0.673,0,0.072,-0.6,1,0,,,,,,,,,,,,,0.062,-0.75,0.994,0,,,,
53154,20110526,-114.19,32.84,0.053,-0.34,0.583,0,0.073,-0.59,1,0,,,,,,,,,,,,,0.063,-0.7,0.988,0,,,,
53154,20110527,-114.19,32.84,0.053,-0.31,0.518,0,0.073,-0.56,1,0,,,,,,,,,,,,,0.063,-0.67,0.988,0,,,,
53154,20110528,-114.19,32.84,0.053,-0.29,0.476,0,0.073,-0.55,1,0,,,,,,,,,,,,,0.063,-0.65,0.94,0,,,,
53154,20110529,-114.19,32.84,0.053,-0.3,0.482,0,0.074,-0.53,1,0,,,,,,,,,,,,,0.063,-0.64,0.94,0,,,,
53154,20110530,-114.19,32.84,0.052,-0.37,0.565,0,0.073,-0.54,1,0,,,,,,,,,,,,,0.063,-0.67,0.94,0,,,,
53154,20110531,-114.19,32.84,0.051,-0.41,0.589,0,0.073,-0.56,1,0,,,,,,,,,,,,,0.062,-0.7,0.94,0,,,,
53154,20110601,-114.19,32.84,0.051,-0.41,0.577,0,0.073,-0.57,1,0,,,,,,,,,,,,,0.062,-0.71,0.94,0,,,,
53154,20110602,-114.19,32.84,0.05,-0.46,0.655,0,0.072,-0.58,1,0,,,,,,,,,,,,,0.061,-0.73,0.946,0,,,,
53154,20110603,-114.19,32.84,0.049,-0.52,0.72,0,0.072,-0.6,1,0,,,,,,,,,,,,,0.061,-0.77,0.946,0,,,,
53154,20110604,-114.19,32.84,0.048,-0.61,0.815,0,0.072,-0.62,1,0,,,,,,,,,,,,,0.06,-0.81,0.994,0,,,,
53154,20110605,-114.19,32.84,0.047,-0.67,0.869,0,0.071,-0.65,1,0,,,,,,,,,,,,,0.059,-0.85,1,0,,,,
53154,20110606,-114.19,32.84,0.047,-0.65,0.827,0,0.071,-0.66,1,0,,,,,,,,,,,,,0.059,-0.84,1,0,,,,
53154,20110607,-114.19,32.84,0.047,-0.67,0.845,0,0.071,-0.66,1,0,,,,,,,,,,,,,0.059,-0.84,1,0,,,,
53154,20110608,-114.19,32.84,0.047,-0.71,0.893,0,0.071,-0.66,1,0,,,,,,,,,,,,,0.059,-0.85,1,0,,,,
53154,20110609,-114.19,32.84,0.046,-0.75,0.905,0,0.071,-0.68,1,0,,,,,,,,,,,,,0.058,-0.86,1,0,,,,
53154,20110610,-114.19,32.84,0.046,-0.75,0.881,0,0.071,-0.69,1,0,,,,,,,,,,,,,0.058,-0.85,1,0,,,,
53154,20110611,-114.19,32.84,0.046,-0.73,0.845,0,0.071,-0.69,1,0,,,,,,,,,,,,,0.058,-0.83,0.994,0,,,,
53154,20110612,-114.19,32.84,0.046,-0.73,0.839,0,0.071,-0.69,1,0,,,,,,,,,,,,,0.058,-0.81,0.994,0,,,,
53154,20110613,-114.19,32.84,0.046,-0.74,0.839,0,0.071,-0.69,1,0,,,,,,,,,,,,,0.058,-0.81,0.994,0,,,,
53154,20110614,-114.19,32.84,0.046,-0.71,0.804,0,0.071,-0.68,1,0,,,,,,,,,,,,,0.058,-0.79,0.994,0,,,,
53154,20110615,-114.19,32.84,0.047,-0.67,0.738,0,0.071,-0.66,1,0,,,,,,,,,,,,,0.059,-0.76,0.976,0,,,,
53154,20110616,-114.19,32.84,0.047,-0.62,0.661,0,0.071,-0.64,0.994,0,,,,,,,,,,,,,0.059,-0.72,0.952,0,,,,
53154,20110617,-114.19,32.84,0.047,-0.61,0.655,0,0.071,-0.61,0.988,0,,,,,,,,,,,,,0.059,-0.71,0.946,0,,,,
53154,20110618,-114.19,32.84,0.047,-0.63,0.667,0,0.071,-0.6,0.988,0,,,,,,,,,,,,,0.059,-0.72,0.952,0,,,,
53154,20110619,-114.19,32.84,0.047,-0.64,0.685,0,0.071,-0.58,0.988,0,,,,,,,,,,,,,0.059,-0.72,0.952,0,,,,
53154,20110620,-114.19,32.84,0.047,-0.67,0.726,0,0.071,-0.57,0.988,0,,,,,,,,,,,,,0.059,-0.73,0.952,0,,,,
53154,20110621,-114.19,32.84,0.047,-0.68,0.714,0,0.071,-0.57,0.988,0,,,,,,,,,,,,,0.059,-0.73,0.94,0,,,,
53154,20110622,-114.19,32.84,0.046,-0.71,0.744,0,0.071,-0.56,0.982,0,,,,,,,,,,,,,0.059,-0.75,0.94,0,,,,
53154,20110623,-114.19,32.84,0.046,-0.75,0.786,0,0.071,-0.57,0.958,0,,,,,,,,,,,,,0.059,-0.76,0.952,0,,,,
53154,20110624,-114.19,32.84,0.046,-0.75,0.78,0,0.071,-0.57,0.952,0,,,,,,,,,,,,,0.058,-0.76,0.935,0,,,,
53154,20110625,-114.19,32.84,0.046,-0.73,0.756,0,0.071,-0.57,0.935,0,,,,,,,,,,,,,0.059,-0.74,0.911,0,,,,
53154,20110626,-114.19,32.84,0.046,-0.69,0.708,0,0.071,-0.57,0.905,0,,,,,,,,,,,,,0.059,-0.72,0.887,0,,,,
53154,20110627,-114.19,32.84,0.047,-0.67,0.679,0,0.071,-0.57,0.887,0,,,,,,,,,,,,,0.059,-0.7,0.887,0,,,,
53154,20110628,-114.19,32.84,0.046,-0.68,0.714,0,0.071,-0.57,0.881,0,,,,,,,,,,,,,0.059,-0.7,0.899,0,,,,
53154,20110629,-114.19,32.84,0.046,-0.69,0.744,0,0.072,-0.58,0.875,0,,,,,,,,,,,,,0.059,-0.71,0.917,0,,,,
53154,20110630,-114.19,32.84,0.046,-0.71,0.774,0,0.071,-0.59,0.905,0,,,,,,,,,,,,,0.059,-0.72,0.929,0,,,,
53154,20110701,-114.19,32.84,0.046,-0.75,0.815,0,0.071,-0.62,0.917,0,,,,,,,,,,,,,0.058,-0.75,0.952,0,,,,
53154,20110702,-114.19,32.84,0.045,-0.8,0.875,0,0.071,-0.66,0.935,0,,,,,,,,,,,,,0.058,-0.79,0.976,0,,,,
53154,20110703,-114.19,32.84,0.045,-0.86,0.935,0,0.07,-0.69,0.964,0,,,,,,,,,,,,,0.058,-0.83,1,0,,,,
53154,20110704,-114.19,32.84,0.044,-0.87,0.964,0,0.07,-0.72,0.982,0,,,,,,,,,,,,,0.057,-0.85,1,0,,,,
53154,20110705,-114.19,32.84,0.045,-0.84,0.94,0,0.07,-0.76,0.988,0,,,,,,,,,,,,,0.057,-0.85,1,0,,,,
53154,20110706,-114.19,32.84,0.047,-0.67,0.851,0.03,0.07,-0.79,1,0,,,,,,,,,,,,,0.058,-0.79,0.964,0.024,,,,
53154,20110707,-114.19,32.84,0.061,0.51,0.714,0.173,0.069,-0.83,1,0,,,,,,,,,,,,,0.065,-0.26,0.821,0.167,,,,
53154,20110708,-114.19,32.84,0.077,1.81,0.571,0.315,0.069,-0.84,1,0,,,,,,,,,,,,,0.073,0.34,0.679,0.31,,,,
53154,20110709,-114.19,32.84,0.091,2.93,0.429,0.458,0.07,-0.8,0.97,0,,,,,,,,,,,,,0.081,0.9,0.536,0.452,,,,
53154,20110710,-114.19,32.84,0.103,3.81,0.286,0.601,0.071,-0.73,0.833,0,,,,,,,,,,,,,0.087,1.36,0.393,0.595,,,,
53154,20110711,-114.19,32.84,0.111,4.46,0.143,0.744,0.072,-0.62,0.69,0,,,,,,,,,,,,,0.092,1.74,0.25,0.738,,,,
53154,20110712,-114.19,32.84,0.118,4.92,0.036,0.887,0.074,-0.5,0.548,0,,,,,,,,,,,,,0.096,2.05,0.107,0.881,,,,
53154,20110713,-114.19,32.84,0.123,5.17,0,1,0.075,-0.37,0.405,0,,,,,,,,,,,,,0.099,2.27,0,1,,,,
53154,20110714,-114.19,32.84,0.114,4.34,0,1,0.077,-0.21,0.262,0,,,,,,,,,,,,,0.096,1.99,0,1,,,,
53154,20110715,-114.19,32.84,0.103,3.36,0,1,0.079,-0.08,0.119,0,,,,,,,,,,,,,0.091,1.64,0,1,,,,
53154,20110716,-114.19,32.84,0.094,2.5,0,1,0.08,0.03,0.006,0,,,,,,,,,,,,,0.087,1.31,0,1,,,,
53154,20110717,-114.19,32.84,0.087,1.85,0,1,0.081,0.08,0,0.006,,,,,,,,,,,,,0.084,1.05,0,0.988,,,,
53154,20110718,-114.19,32.84,0.082,1.4,0,1,0.081,0.11,0,0.012,,,,,,,,,,,,,0.081,0.87,0,0.952,,,,
53154,20110719,-114.19,32.84,0.078,1.07,0,0.887,0.081,0.13,0,0.024,,,,,,,,,,,,,0.08,0.72,0,0.857,,,,
53154,20110720,-114.19,32.84,0.075,0.82,0,0.744,0.081,0.16,0,0.036,,,,,,,,,,,,,0.078,0.6,0,0.72,,,,
53154,20110721,-114.19,32.84,0.073,0.62,0,0.601,0.081,0.17,0,0.036,,,,,,,,,,,,,0.077,0.49,0,0.577,,,,
53154,20110722,-114.19,32.84,0.071,0.46,0,0.458,0.081,0.16,0,0.036,,,,,,,,,,,,,0.076,0.39,0,0.435,,,,
53154,20110723,-114.19,32.84,0.069,0.34,0,0.315,0.081,0.13,0,0.036,,,,,,,,,,,,,0.075,0.3,0,0.292,,,,
53154,20110724,-114.19,32.84,0.068,0.26,0,0.173,0.081,0.09,0.012,0.03,,,,,,,,,,,,,0.074,0.23,0,0.161,,,,
53154,20110725,-114.19,32.84,0.067,0.19,0,0.03,0.08,0.04,0.077,0.024,,,,,,,,,,,,,0.073,0.16,0,0.054,,,,
53154,20110726,-114.19,32.84,0.066,0.15,0,0,0.079,-0.04,0.161,0.012,,,,,,,,,,,,,0.073,0.11,0,0.006,,,,
53154,20110727,-114.19,32.84,0.065,0.12,0,0,0.079,-0.11,0.214,0,,,,,,,,,,,,,0.072,0.07,0,0,,,,
53154,20110728,-114.19,32.84,0.065,0.09,0,0,0.078,-0.19,0.315,0,,,,,,,,,,,,,0.071,0.03,0,0,,,,
53154,20110729,-114.19,32.84,0.065,0.07,0,0,0.077,-0.25,0.417,0,,,,,,,,,,,,,0.071,0,0,0,,,,
53154,20110730,-114.19,32.84,0.065,0.07,0,0,0.077,-0.29,0.512,0,,,,,,,,,,,,,0.071,0,0,0,,,,
53154,20110731,-114.19,32.84,0.064,0.06,0,0,0.076,-0.31,0.607,0,,,,,,,,,,,,,0.07,-0.02,0,0,,,,
53154,20110801,-114.19,32.84,0.065,0.06,0,0,0.076,-0.31,0.601,0,,,,,,,,,,,,,0.07,-0.01,0,0,,,,
53154,20110802,-114.19,32.84,0.064,0.04,0,0,0.076,-0.31,0.571,0,,,,,,,,,,,,,0.07,-0.02,0,0,,,,
53154,20110803,-114.19,32.84,0.064,0.04,0,0,0.076,-0.3,0.536,0,,,,,,,,,,,,,0.07,-0.02,0,0,,,,
53154,20110804,-114.19,32.84,0.064,0.04,0,0,0.076,-0.28,0.435,0,,,,,,,,,,,,,0.07,-0.02,0,0,,,,
53154,20110805,-114.19,32.84,0.064,0.01,0,0,0.076,-0.27,0.363,0,,,,,,,,,,,,,0.07,-0.03,0,0,,,,
53154,20110806,-114.19,32.84,0.063,-0.02,0.012,0,0.076,-0.27,0.339,0,,,,,,,,,,,,,0.069,-0.05,0.042,0,,,,
53154,20110807,-114.19,32.84,0.062,-0.06,0.036,0,0.076,-0.28,0.357,0,,,,,,,,,,,,,0.069,-0.08,0.149,0,,,,
53154,20110808,-114.19,32.84,0.061,-0.1,0.054,0,0.075,-0.3,0.423,0,,,,,,,,,,,,,0.068,-0.11,0.202,0,,,,
53154,20110809,-114.19,32.84,0.06,-0.13,0.065,0,0.075,-0.32,0.5,0,,,,,,,,,,,,,0.067,-0.14,0.25,0,,,,
53154,20110810,-114.19,32.84,0.059,-0.17,0.077,0,0.074,-0.35,0.607,0,,,,,,,,,,,,,0.066,-0.17,0.351,0,,,,
53154,20110811,-114.19,32.84,0.058,-0.21,0.149,0,0.074,-0.38,0.738,0,,,,,,,,,,,,,0.066,-0.2,0.488,0,,,,
53154,20110812,-114.19,32.84,0.057,-0.24,0.202,0,0.073,-0.4,0.851,0,,,,,,,,,,,,,0.065,-0.23,0.625,0,,,,
53154,20110813,-114.19,32.84,0.057,-0.25,0.196,0,0.072,-0.43,0.923,0,,,,,,,,,,,,,0.065,-0.24,0.702,0,,,,
53154,20110814,-114.19,32.84,0.057,-0.25,0.202,0,0.072,-0.44,0.94,0,,,,,,,,,,,,,0.064,-0.25,0.696,0,,,,
53154,20110815,-114.19,32.84,0.057,-0.26,0.262,0,0.071,-0.44,0.946,0,,,,,,,,,,,,,0.064,-0.26,0.75,0,,,,
53154,20110816,-114.19,32.84,0.056,-0.3,0.387,0,0.071,-0.45,0.946,0,,,,,,,,,,,,,0.064,-0.27,0.845,0,,,,
53154,20110817,-114.19,32.84,0.056,-0.31,0.44,0,0.071,-0.46,0.958,0,,,,,,,,,,,,,0.063,-0.29,0.887,0,,,,
53154,20110818,-114.19,32.84,0.056,-0.31,0.405,0,0.071,-0.46,0.97,0,,,,,,,,,,,,,0.064,-0.28,0.869,0,,,,
53154,20110819,-114.19,32.84,0.057,-0.32,0.429,0,0.071,-0.47,0.97,0,,,,,,,,,,,,,0.064,-0.28,0.833,0,,,,
53154,20110820,-114.19,32.84,0.057,-0.33,0.512,0,0.071,-0.48,0.97,0,,,,,,,,,,,,,0.064,-0.29,0.833,0,,,,
53154,20110821,-114.19,32.84,0.056,-0.35,0.613,0,0.071,-0.5,0.97,0,,,,,,,,,,,,,0.063,-0.3,0.875,0,,,,
53154,20110822,-114.19,32.84,0.056,-0.37,0.679,0,0.07,-0.53,0.982,0,,,,,,,,,,,,,0.063,-0.32,0.911,0,,,,
53154,20110823,-114.19,32.84,0.056,-0.38,0.679,0,0.07,-0.56,0.994,0,,,,,,,,,,,,,0.063,-0.33,0.911,0,,,,
53154,20110824,-114.19,32.84,0.055,-0.39,0.756,0,0.07,-0.57,1,0,,,,,,,,,,,,,0.063,-0.35,0.911,0,,,,
53154,20110825,-114.19,32.84,0.055,-0.42,0.863,0,0.07,-0.59,1,0,,,,,,,,,,,,,0.062,-0.36,0.935,0,,,,
53154,20110826,-114.19,32.84,0.054,-0.43,0.917,0,0.07,-0.6,1,0,,,,,,,,,,,,,0.062,-0.38,0.976,0,,,,
53154,20110827,-114.19,32.84,0.054,-0.44,0.917,0,0.07,-0.6,1,0,,,,,,,,,,,,,0.062,-0.38,1,0,,,,
53154,20110828,-114.19,32.84,0.065,-0.12,0.839,0.042,0.076,-0.32,0.97,0.03,,,,,,,,,,,,,0.07,-0.07,0.946,0.042,,,,
53154,20110829,-114.19,32.84,0.093,0.69,0.696,0.185,0.102,0.89,0.827,0.173,,,,,,,,,,,,,0.097,0.91,0.804,0.185,,,,
53154,20110830,-114.19,32.84,0.119,1.43,0.56,0.327,0.117,1.6,0.685,0.315,,,,,,,,,,,,,0.118,1.65,0.661,0.327,,,,
53154,20110831,-114.19,32.84,0.144,2.14,0.417,0.47,0.131,2.24,0.542,0.458,,,,,,,,,,,,,0.138,2.37,0.518,0.47,,,,
53154,20110901,-114.19,32.84,0.169,2.8,0.274,0.613,0.146,2.91,0.399,0.601,,,,,,,,,,,,,0.157,3.06,0.375,0.613,,,,
53154,20110902,-114.19,32.84,0.193,3.42,0.143,0.756,0.16,3.58,0.256,0.744,,,,,,,,,,,,,0.177,3.74,0.232,0.756,,,,
53154,20110903,-114.19,32.84,0.215,3.98,0.054,0.899,0.175,4.21,0.113,0.887,,,,,,,,,,,,,0.195,4.35,0.089,0.899,,,,
53154,20110904,-114.19,32.84,0.226,4.2,0,1,0.183,4.56,0,1,,,,,,,,,,,,,0.205,4.65,0,1,,,,
53154,20110905,-114.19,32.84,0.219,3.91,0,1,0.171,3.99,0,1,,,,,,,,,,,,,0.195,4.24,0,1,,,,
53154,20110906,-114.19,32.84,0.218,3.77,0,1,0.17,3.89,0,1,,,,,,,,,,,,,0.194,4.12,0,1,,,,
53154,20110907,-114.19,32.84,0.219,3.65,0,1,0.171,3.91,0,1,,,,,,,,,,,,,0.195,4.04,0,1,,,,
53154,20110908,-114.19,32.84,0.219,3.56,0,1,0.173,3.93,0,1,,,,,,,,,,,,,0.196,3.97,0,1,,,,
53154,20110909,-114.19,32.84,0.22,3.49,0,1,0.174,3.93,0,1,,,,,,,,,,,,,0.197,3.89,0,1,,,,
53154,20110910,-114.19,32.84,0.221,3.45,0,1,0.175,3.93,0,1,,,,,,,,,,,,,0.198,3.83,0,1,,,,
53154,20110911,-114.19,32.84,0.222,3.41,0,1,0.176,3.92,0,1,,,,,,,,,,,,,0.199,3.76,0,1,,,,
53154,20110912,-114.19,32.84,0.223,3.4,0,1,0.175,3.87,0,1,,,,,,,,,,,,,0.199,3.69,0,1,,,,
53154,20110913,-114.19,32.84,0.219,3.29,0,1,0.176,3.83,0,1,,,,,,,,,,,,,0.197,3.56,0,1,,,,
53154,20110914,-114.19,32.84,0.213,3.17,0,1,0.174,3.69,0,1,,,,,,,,,,,,,0.193,3.4,0,1,,,,
53154,20110915,-114.19,32.84,0.21,3.13,0,1,0.171,3.49,0,1,,,,,,,,,,,,,0.19,3.28,0,1,,,,
53154,20110916,-114.19,32.84,0.208,3.1,0,1,0.168,3.32,0,1,,,,,,,,,,,,,0.188,3.19,0,1,,,,
53154,20110917,-114.19,32.84,0.205,3.07,0,1,0.166,3.16,0,1,,,,,,,,,,,,,0.186,3.1,0,1,,,,
53154,20110918,-114.19,32.84,0.203,3.05,0,1,0.164,3.02,0,1,,,,,,,,,,,,,0.184,3.04,0,1,,,,
53154,20110919,-114.19,32.84,0.2,3.03,0,1,0.163,2.91,0,1,,,,,,,,,,,,,0.182,3,0,1,,,,
53154,20110920,-114.19,32.84,0.198,2.99,0,1,0.163,2.82,0,1,,,,,,,,,,,,,0.18,2.95,0,1,,,,
53154,20110921,-114.19,32.84,0.194,2.93,0,1,0.163,2.76,0,1,,,,,,,,,,,,,0.178,2.9,0,1,,,,
53154,20110922,-114.19,32.84,0.189,2.8,0,1,0.163,2.71,0,1,,,,,,,,,,,,,0.176,2.82,0,1,,,,
53154,20110923,-114.19,32.84,0.182,2.63,0,1,0.163,2.68,0,1,,,,,,,,,,,,,0.172,2.72,0,1,,,,
53154,20110924,-114.19,32.84,0.175,2.47,0,1,0.162,2.64,0,1,,,,,,,,,,,,,0.169,2.63,0,1,,,,
53154,20110925,-114.19,32.84,0.168,2.31,0,1,0.163,2.61,0,1,,,,,,,,,,,,,0.165,2.53,0,1,,,,
53154,20110926,-114.19,32.84,0.16,2.14,0,1,0.162,2.58,0,1,,,,,,,,,,,,,0.161,2.43,0,1,,,,
53154,20110927,-114.19,32.84,0.153,2,0,1,0.162,2.53,0,1,,,,,,,,,,,,,0.157,2.34,0,1,,,,
53154,20110928,-114.19,32.84,0.146,1.89,0,1,0.161,2.48,0,1,,,,,,,,,,,,,0.154,2.26,0,1,,,,
53154,20110929,-114.19,32.84,0.141,1.81,0,1,0.161,2.43,0,1,,,,,,,,,,,,,0.151,2.21,0,1,,,,
53154,20110930,-114.19,32.84,0.136,1.76,0,1,0.16,2.38,0,1,,,,,,,,,,,,,0.148,2.18,0,1,,,,
53154,20111001,-114.19,32.84,0.131,1.72,0,1,0.16,2.34,0,1,,,,,,,,,,,,,0.146,2.17,0,1,,,,
53154,20111002,-114.19,32.84,0.128,1.7,0,1,0.159,2.31,0,1,,,,,,,,,,,,,0.143,2.16,0,1,,,,
53154,20111003,-114.19,32.84,0.125,1.7,0,1,0.158,2.29,0,1,,,,,,,,,,,,,0.142,2.17,0,1,,,,
53154,20111004,-114.19,32.84,0.122,1.68,0,1,0.158,2.29,0,1,,,,,,,,,,,,,0.14,2.19,0,1,,,,
53154,20111005,-114.19,32.84,0.118,1.64,0,1,0.157,2.3,0,1,,,,,,,,,,,,,0.138,2.19,0,1,,,,
53154,20111006,-114.19,32.84,0.115,1.61,0,1,0.156,2.29,0,1,,,,,,,,,,,,,0.135,2.18,0,1,,,,
53154,20111007,-114.19,32.84,0.112,1.57,0,1,0.154,2.29,0,1,,,,,,,,,,,,,0.133,2.16,0,1,,,,
53154,20111008,-114.19,32.84,0.109,1.52,0,1,0.153,2.27,0,1,,,,,,,,,,,,,0.131,2.12,0,1,,,,
53154,20111009,-114.19,32.84,0.106,1.47,0,1,0.151,2.24,0,1,,,,,,,,,,,,,0.128,2.09,0,1,,,,
53154,20111010,-114.19,32.84,0.104,1.43,0,1,0.149,2.21,0,1,,,,,,,,,,,,,0.126,2.06,0,1,,,,
53154,20111011,-114.19,32.84,0.102,1.4,0,1,0.147,2.18,0,1,,,,,,,,,,,,,0.124,2.05,0,1,,,,
53154,20111012,-114.19,32.84,0.101,1.4,0,1,0.145,2.17,0,1,,,,,,,,,,,,,0.123,2.05,0,1,,,,
53154,20111013,-114.19,32.84,0.101,1.39,0,1,0.145,2.17,0,1,,,,,,,,,,,,,0.123,2.06,0,1,,,,
53154,20111014,-114.19,32.84,0.1,1.38,0,1,0.144,2.19,0,1,,,,,,,,,,,,,0.122,2.07,0,1,,,,
53154,20111015,-114.19,32.84,0.099,1.38,0,1,0.144,2.21,0,1,,,,,,,,,,,,,0.122,2.09,0,1,,,,
53154,20111016,-114.19,32.84,0.099,1.37,0,1,0.144,2.24,0,1,,,,,,,,,,,,,0.121,2.1,0,1,,,,
53154,20111017,-114.19,32.84,0.098,1.35,0,1,0.143,2.26,0,1,,,,,,,,,,,,,0.121,2.11,0,1,,,,
53154,20111018,-114.19,32.84,0.097,1.34,0,1,0.143,2.28,0,1,,,,,,,,,,,,,0.12,2.11,0,1,,,,
53154,20111019,-114.19,32.84,0.096,1.33,0,1,0.143,2.3,0,1,,,,,,,,,,,,,0.119,2.11,0,1,,,,
53154,20111020,-114.19,32.84,0.094,1.3,0,1,0.142,2.3,0,1,,,,,,,,,,,,,0.118,2.09,0,1,,,,